Showing default

FLOCK 4Q 35, 58309

Orbit data source: Space-Track

FLOCK 4Q 35, 58309 is a payload satellite owned by Planet (US) in SSO that was launched on Sat, 11 Nov 2023 UTC via an FALCON 9 launch vehicle from the Air Force Western Test Range (AFWTR). Payload-class satellites include a variety of spacecraft equipped with specific instruments for various scientific and technological missions. These include communications satellites like Starlink; space stations such as the ISS; scientific satellites like the Hubble; Earth observation satellites from companies like Planet Labs, Umbra, and HawkEye 360; GPS; miniature CubeSats for education and research; and military/defense satellites.

Not visible in the next 10 days
Identifier
58309, 2023-174BF
Orbit
SSO
Country
Flag of USUS
Related business
Manufacturer
Planet
Mission
Non-operational Commercial Imaging
Bus & Motor
CUBESAT 3U, Unknown motor
Mass
5.7 kg wet, 5.7 kg dry
Launch date (UTC)
2023-11-11 (3 years ago)
Launch vehicle
FALCON 9
Launch site
Air Force Western Test Range (AFWTR)
Object type
Payload
Rocket body
Debris
Shape & HBR
Box + 2 Pan, 1.0 m
Radar Cross Section
0.072 m², Medium (>0.1 m² and < 1m²)

Expand to show TLE details & history
Last TLE update: 9 hours ago

TLE from 9 hours ago
0 FLOCK 4Q 35
1 58309U 23174BF  26248.23860521  .00149327  00000-0  99895-3 0  9990
2 58309  97.3789 344.0856 0006462 218.3296 141.7510 15.74831232158323
Epoch: 2026-09-05T05:43Z
TLE epoch observation values (Epoch: 2026-09-05T05:43:35.490Z)
Latitude
-0.00003°
Longitude
-86.16321°
Altitude
351.69 km
Speed
7.696 km/s
True Right ascension
22h 56m 20s
True Declination
0° 00' 00"
Sunlit
Object was in full shadow at epoch
Visualization orbit readout
Latitude
Unknown
Longitude
Unknown
Altitude
Unknown
Speed
Unknown
Apparent Right ascension
Unknown
Apparent Declination
Unknown
Sunlit
N/A
Visualization observer readout
Local Sidereal Time
06:56:18
Azimuth
Unknown
Elevation
Unknown
Doppler factor
Unknown
Orbital elements
Apogee altitude
346.346 km
Perigee altitude
337.661 km
Semi-major axis
6,720.14 km
Eccentricity
0.00065
Inclination
97.3789°
RAAN
344.0856°
Arg. of periapsis
218.3296°
True anomaly
141.79681°
Mean anomaly
141.751°
Eccentric anomaly
141.77391°
Mean motion
3.93981 °/min
Orbital period
91.37 mins
BSTAR
0.00099895
Loading maneuver chart data...
Computing Atmospheric mass density...
Loading historical data...
Loading historical data...
Loading historical data...
Loading historical data...
Loading historical data...
Loading historical data...
Loading historical data...

Documentation

Showing up to 5 results
|